AUA28F LOWW-EDDP

Flight info

Callsign AUA28F
Flight time N/A
Altitude 30000
Route UNGU2C/29 LANUX DCT VLM DCT BEFRE DCT IVQOQ T951 YAWOY YAWOY1V
Aircraft A321/M-SDE3FGHIRWY/LB1

Departure

Time 2026-04-26 19:41
Airport Vienna International Airport (LOWW)

Arrival

Time N/A
Airport Leipzig/Halle Airport (EDDP)
Time Latitude Longitude Altitude Speed Heading
2026-04-26 19:14 48.11684 16.56842 619 ft 0 kts 29°
2026-04-26 19:32 48.11669 16.56830 618 ft 4 kts 28°
2026-04-26 19:32 48.11647 16.56809 619 ft 4 kts 44°
2026-04-26 19:32 48.11632 16.56778 622 ft 4 kts 80°
2026-04-26 19:33 48.11633 16.56752 621 ft 0 kts 114°
2026-04-26 19:36 48.11616 16.56809 613 ft 7 kts 114°
2026-04-26 19:36 48.11601 16.56858 619 ft 11 kts 115°
2026-04-26 19:36 48.11538 16.57054 622 ft 16 kts 116°
2026-04-26 19:36 48.11493 16.57192 615 ft 14 kts 116°
2026-04-26 19:37 48.11463 16.57277 618 ft 9 kts 117°
2026-04-26 19:37 48.11432 16.57361 615 ft 9 kts 129°
2026-04-26 19:37 48.11393 16.57390 620 ft 4 kts 155°
2026-04-26 19:37 48.11386 16.57388 616 ft 0 kts 193°
2026-04-26 19:38 48.11369 16.57373 614 ft 6 kts 214°
2026-04-26 19:38 48.11315 16.57329 618 ft 13 kts 205°
2026-04-26 19:38 48.11239 16.57283 624 ft 9 kts 192°
2026-04-26 19:38 48.11192 16.57315 623 ft 7 kts 135°
2026-04-26 19:39 48.11171 16.57392 622 ft 10 kts 109°
2026-04-26 19:39 48.11137 16.57493 627 ft 11 kts 124°
2026-04-26 19:39 48.11080 16.57525 618 ft 7 kts 197°
2026-04-26 19:39 48.11023 16.57480 629 ft 11 kts 200°
2026-04-26 19:40 48.10967 16.57424 624 ft 9 kts 242°
2026-04-26 19:40 48.10985 16.57333 632 ft 10 kts 290°
2026-04-26 19:40 48.11020 16.57209 623 ft 24 kts 294°
2026-04-26 19:40 48.11206 16.56652 630 ft 93 kts 296°
2026-04-26 19:41 48.11574 16.55516 624 ft 146 kts 296°
2026-04-26 19:41 48.12060 16.53997 878 ft 167 kts 294°
2026-04-26 19:41 48.12461 16.52278 1275 ft 186 kts 281°
2026-04-26 19:41 48.12356 16.50963 1438 ft 203 kts 249°
2026-04-26 19:42 48.10932 16.48975 2039 ft 218 kts 211°
2026-04-26 19:42 48.09590 16.47947 2572 ft 220 kts 208°
2026-04-26 19:42 48.08235 16.46853 3102 ft 223 kts 218°
2026-04-26 19:42 48.07176 16.45106 3507 ft 238 kts 242°
2026-04-26 19:43 48.06352 16.42828 3848 ft 260 kts 246°
2026-04-26 19:43 48.05566 16.40342 4514 ft 268 kts 248°
2026-04-26 19:43 48.04794 16.37775 5305 ft 273 kts 249°
2026-04-26 19:43 48.04014 16.35161 5841 ft 277 kts 249°
2026-04-26 19:44 48.03405 16.32434 6569 ft 277 kts 265°
2026-04-26 19:44 48.03474 16.29595 7333 ft 275 kts 287°
2026-04-26 19:44 48.04284 16.27043 8079 ft 273 kts 310°
2026-04-26 19:44 48.05692 16.25219 8778 ft 274 kts 332°
2026-04-26 19:45 48.07408 16.23934 9537 ft 276 kts 334°
2026-04-26 19:45 48.09181 16.22619 9869 ft 296 kts 334°
2026-04-26 19:45 48.11095 16.21190 10019 ft 318 kts 334°
2026-04-26 19:45 48.13140 16.19656 10201 ft 337 kts 333°
2026-04-26 19:46 48.15260 16.18055 10739 ft 344 kts 333°
2026-04-26 19:46 48.17406 16.16427 11345 ft 348 kts 332°
2026-04-26 19:46 48.19578 16.14777 11980 ft 351 kts 332°
2026-04-26 19:46 48.21769 16.13113 12601 ft 355 kts 331°
2026-04-26 19:47 48.23955 16.11451 13173 ft 359 kts 331°
2026-04-26 19:47 48.25466 16.10303 13547 ft 362 kts 330°
2026-04-26 19:47 48.28469 16.08019 14234 ft 369 kts 330°
2026-04-26 19:47 48.30776 16.06263 14701 ft 375 kts 329°
2026-04-26 19:48 48.33117 16.04480 15167 ft 380 kts 329°
2026-04-26 19:48 48.35491 16.02672 15627 ft 385 kts 329°
2026-04-26 19:48 48.37900 16.00843 16056 ft 391 kts 329°
2026-04-26 19:48 48.40345 15.98985 16480 ft 396 kts 329°
2026-04-26 19:49 48.42784 15.97125 16889 ft 401 kts 329°
2026-04-26 19:49 48.45287 15.95212 17285 ft 406 kts 329°
2026-04-26 19:49 48.47813 15.93275 17679 ft 410 kts 329°
2026-04-26 19:49 48.50366 15.91315 18052 ft 414 kts 330°
2026-04-26 19:50 48.52949 15.89334 18381 ft 419 kts 330°
2026-04-26 19:50 48.55562 15.87331 18719 ft 423 kts 330°
2026-04-26 19:50 48.58196 15.85309 19051 ft 427 kts 330°
2026-04-26 19:50 48.60856 15.83262 19415 ft 431 kts 330°
2026-04-26 19:51 48.63505 15.81221 19740 ft 434 kts 330°
2026-04-26 19:51 48.66208 15.79135 20068 ft 438 kts 331°
2026-04-26 19:51 48.68934 15.77026 20412 ft 442 kts 331°
2026-04-26 19:51 48.71681 15.74896 20764 ft 445 kts 331°
2026-04-26 19:52 48.74449 15.72748 21111 ft 449 kts 331°
2026-04-26 19:52 48.77242 15.70579 21464 ft 452 kts 332°
2026-04-26 19:52 48.80050 15.68396 21801 ft 456 kts 332°
2026-04-26 19:52 48.82881 15.66194 22152 ft 459 kts 332°
2026-04-26 19:53 48.85694 15.64002 22498 ft 462 kts 333°
2026-04-26 19:53 48.88566 15.61765 22856 ft 465 kts 333°
2026-04-26 19:53 48.91477 15.59613 23212 ft 467 kts 336°
2026-04-26 19:53 48.94447 15.57589 23566 ft 469 kts 338°
2026-04-26 19:54 48.97456 15.55648 23925 ft 471 kts 339°
2026-04-26 19:54 49.00485 15.53735 24287 ft 472 kts 340°
2026-04-26 19:54 49.03525 15.51806 24652 ft 474 kts 340°
2026-04-26 19:54 49.06564 15.49839 25002 ft 475 kts 339°
2026-04-26 19:55 49.09600 15.47837 25364 ft 476 kts 340°
2026-04-26 19:55 49.12594 15.45835 25757 ft 476 kts 340°
2026-04-26 19:55 49.15626 15.43791 26148 ft 476 kts 340°
2026-04-26 19:55 49.18659 15.41743 26501 ft 477 kts 340°
2026-04-26 19:56 49.21696 15.39697 26819 ft 478 kts 340°
2026-04-26 19:56 49.24743 15.37651 27104 ft 479 kts 340°
2026-04-26 19:56 49.27799 15.35600 27392 ft 480 kts 340°
2026-04-26 19:56 49.30855 15.33543 27707 ft 479 kts 340°
2026-04-26 19:57 49.33904 15.31492 28047 ft 477 kts 341°
2026-04-26 19:57 49.36902 15.29473 28294 ft 478 kts 341°
2026-04-26 19:57 49.39941 15.27424 28569 ft 476 kts 341°
2026-04-26 19:57 49.42960 15.25386 28930 ft 472 kts 341°
2026-04-26 19:58 49.45944 15.23361 29365 ft 466 kts 341°
2026-04-26 19:58 49.48887 15.21360 29676 ft 460 kts 340°
2026-04-26 19:58 49.51793 15.19382 29750 ft 449 kts 340°
2026-04-26 19:58 49.54620 15.17453 29762 ft 442 kts 341°
2026-04-26 19:59 49.60226 15.13645 29751 ft 439 kts 341°
2026-04-26 19:59 49.65775 15.09869 29750 ft 438 kts 341°
2026-04-26 20:00 49.71406 15.06440 29755 ft 431 kts 350°
2026-04-26 20:00 49.77256 15.04686 29754 ft 428 kts 353°
2026-04-26 20:01 49.83113 15.02989 29747 ft 428 kts 353°
2026-04-26 20:01 49.88830 15.01318 29735 ft 428 kts 353°
2026-04-26 20:02 49.94687 14.99603 29743 ft 428 kts 353°
2026-04-26 20:02 49.99545 14.98175 29745 ft 428 kts 353°
2026-04-26 20:03 50.06370 14.96162 29742 ft 427 kts 353°
2026-04-26 20:03 50.12209 14.94450 29738 ft 426 kts 353°
2026-04-26 20:04 50.17996 14.92738 29738 ft 426 kts 353°
2026-04-26 20:04 50.23813 14.90998 29736 ft 426 kts 353°
2026-04-26 20:05 50.29633 14.89266 29750 ft 427 kts 353°
2026-04-26 20:05 50.35473 14.87527 29752 ft 428 kts 353°
2026-04-26 20:06 50.41321 14.85789 29752 ft 427 kts 353°
2026-04-26 20:06 50.47119 14.84048 29755 ft 427 kts 353°
2026-04-26 20:07 50.52950 14.82288 29741 ft 427 kts 353°
2026-04-26 20:07 50.58777 14.80540 29738 ft 427 kts 353°